Regional Weather Roundup
Issued by NWS Kansas City/Pleasant Hill, MO

Home | Current Version | Previous Version | Graphics & Text | Print | Product List | Glossary Off
Versions: 1 2 3 4 5 6 7 8 9 10 11 12 13 14 15 16 17 18 19 20 21 22 23 24 25 26 27 28 29 30 31 32 33 34 35 36 37 38 39 40 41 42 43 44 45 46 47 48 49 50

000
ASUS43 KEAX 222310
RWREAX

WEATHER ROUNDUP FOR EASTERN KANSAS AND NORTHWEST MISSOURI
NATIONAL WEATHER SERVICE KANSAS CITY/PLEASANT HILL MO
600 PM CDT FRI JUL 22 2016

KSZ040-057-103>105-MOZ028-029-037-043-230000-
...KANSAS CITY METROPOLITAN AREA...

CITY           SKY/WX    TMP DP  RH WIND       PRES   REMARKS
K.C. INTL      PTSUNNY   90  79  70 S8        29.95F HX 106
K.C. DOWNTOWN  SUNNY     95  77  55 S13       29.93F HX 109
LEES SUMMIT    SUNNY     94  77  57 S9        29.97F HX 108
OLATHE - IXD   SUNNY     95  78  58 S9        29.96F HX 111
OLATHE - OJC   SUNNY     91  78  65 S9        29.97F HX 106
LAWRENCE       SUNNY     96  74  48 S10       29.93F HX 107

$$

MOZ001>008-011>017-020>025-030>033-038>040-044>046-053-054-230000-
...NORTHERN AND CENTRAL MISSOURI...

CITY           SKY/WX    TMP DP  RH WIND       PRES   REMARKS
ST. JOSEPH     SUNNY     93  79  63 S8        29.93F HX 110
MOSBY          CLEAR     91  77  62 SE5       29.95F HX 105
WHITEMAN AFB   MOSUNNY   92  77  61 S12       29.98S HX 105
CLINTON        SUNNY     91  77  62 CALM      29.99S HX 105
SEDALIA        CLOUDY    93  75  55 SW8       30.00S HX 104
WARSAW         NOT AVBL
CHILLICOTHE      N/A     91  77  63 S7        29.98R HX 104
KIRKSVILLE     MOSUNNY   88  74  63 SW6       30.00F HX  96

$$

MOZ041-047>049-056>058-063>065-088>090-097-230000-
...EASTERN AND SOUTHERN MISSOURI...

CITY           SKY/WX    TMP DP  RH WIND       PRES   REMARKS
ST. LOUIS INTL PTSUNNY   86  72  62 E7        30.00F HX  92
SPIRIT OF STL  MOSUNNY   85  75  72 S6        29.99F HX  93
COLUMBIA       CLOUDY    88  78  72 SE6       30.00F HX 101
JEFFERSON CITY CLOUDY    88  77  69 E8        29.98F HX 100
ROLLA          CLOUDY    87  73  62 SW3       30.01F HX  94
OSAGE BEACH    MOSUNNY   91  76  61 S3        30.01F HX 103
SPRINGFIELD    SUNNY     96  67  38 SW7       30.01S HX 100
BRANSON        PTSUNNY   93  73  52 CALM      30.03F HX 102
JOPLIN         SUNNY     94  69  44 SW8       29.99S HX  99
WEST PLAINS    SUNNY     95  71  45 CALM      30.04F HX 102

$$

IAZ060-094-KSZ022-034>040-054-083-096-NEZ052-066-093-230000-
...KANSAS...SOUTHEAST NEBRASKA AND IOWA...

CITY           SKY/WX    TMP DP  RH WIND       PRES   REMARKS
TOPEKA         SUNNY     98  69  38 SW10      29.93S HX 104
MANHATTAN      MOSUNNY   92  75  57 CALM      29.93F HX 103
EMPORIA        SUNNY     97  71  42 S12       29.95F HX 104
CHANUTE        SUNNY     95  72  47 S12       29.97S HX 103
WICHITA        MOSUNNY  104  61  24 S14       29.92F HX 105
OMAHA          PTSUNNY   94  80  64 S10       29.90F HX 113
LINCOLN        CLOUDY    92  72  51 SW6       29.91F HX  99
FALLS CITY     CLOUDY    94  75  54 S8        29.90F HX 105
LAMONI         SUNNY     89  78  70 S8        29.98R HX 103
DES MOINES     MOSUNNY   91  78  65 S9        29.95F HX 106

$$




USA.gov is the U.S. government's official web portal to all federal, state and local government web resources and services.